Find Starlink 1960

NORAD ID: 47561 Int'l Des: 2021-009 Owner: SPXS Country: US Constellation: starlink decayed
LEOCIRCULAR
Vis

Historical Track — May 15, 2025

Loading 3D Globe...

About Starlink 1960

Description loading...

Altitude History

Loading altitude history...

Two-Line Element Set

1 47561U 21009P 25135.81781569 .17546736 12604-4 44478-3 0 9992
2 47561 53.0201 239.7485 0009905 305.4583 149.4898 16.45149143237053
Epoch: May 15, 2025 • Age: 8420 hours

Current Status

Position data unavailable
Launch Date Feb 4, 2021
Age 5.2 years
Decay Date May 15, 2025
Type internet

Technical Details

Classification Payload
Mass 260.00 kg
Dry Mass 248.00 kg
Total Mass 260.00 kg
Length 0.20 m
Diameter 2.80 m
Span 9.00 m
Shape Box + pan
Manufacturer SPXS
Bus Type Starlink
Phase Status Reentered
Owner/State SPXS/US

Most Searched